LEMUR-2-CHANUSIAK (43697 NORAD) Tracking and Keplerian Element Data

This shows tracking and keplerian element data for the satellite.

Feedback or suggestion? Click here.




ElementValue
Catalog43697
NameLEMUR-2-CHANUSIAK
Epoch Orbit457
Epoch Day345.20054183
Epoch Year2018
RAAN83.1841
Inclination85.0397
Eccentricity0.0017448
Argument of Perigee156.5742
Mean Anonmoly203.6298
Mean Motion15.20462289
Decay Rate2.208E-05
L11 43697U 18088H 18345.20054183 .00002208 00000-0 99032-4 0 9997
L22 43697 85.0397 83.1841 0017448 156.5742 203.6298 15.20462289 4577

Live tracking and technical data element details for LEMUR-2-CHANUSIAK (NORAD 43697). LEMUR-2-CHANUSIAK can be tracked NOW for your location showing map with azimuth and elevation plus other details from your city location.

Track the satellite on the map from your city or location and see movement details for azimuth, elevation, latitude, longitude, range, height, and movement on the map or in text.







IsCatalogInMostPopularTable: catalog: 43697, numindb: 111
Update: records affected: 1



GetName: 43697 LEMUR-2-CHANUSIAK

Hit Count: updated at: Sun, 26 May 2019 19:18:54 GMT